DW2465 Weather Reports


time (UTC)temp
F
wind
direction
speed
knots
gust
knots
rain 1hr
in
rain 24hr
in
rain mn
in
humidity
%
barometer
mb
20260904091513 75 160 0.0 0.0 0.00 0.09 0.00 92 1006.6
20260904090020 75 160 0.0 0.0 0.00 0.09 0.00 92 1006.6
20260904084548 75 160 0.0 0.0 0.00 0.09 0.00 92 1006.5
20260904083040 75 160 0.0 0.0 0.00 0.09 0.00 92 1006.4
20260904081535 75 160 0.0 0.0 0.00 0.09 0.00 91 1006.4
20260904080050 76 160 0.0 0.0 0.00 0.09 0.00 90 1006.3
20260904074537 76 160 0.0 0.0 0.00 0.09 0.00 90 1006.4
20260904073032 76 160 0.0 0.0 0.00 0.09 0.00 90 1006.5
20260904071603 76 156 0.0 0.0 0.00 0.09 0.00 90 1006.5
20260904064555 77 170 0.0 0.0 0.00 0.09 0.00 89 1006.4
20260904063112 77 171 0.0 0.0 0.00 0.09 0.00 88 1006.5
20260904061553 77 153 0.0 0.0 0.00 0.09 0.00 88 1006.4
20260904060054 77 169 0.0 0.0 0.00 0.09 0.00 87 1006.5
20260904054550 77 147 0.0 0.0 0.00 0.09 0.00 87 1006.4
20260904053058 77 175 0.0 0.0 0.00 0.09 0.00 86 1006.5
20260904051544 77 157 0.0 0.0 0.00 0.09 0.00 85 1006.3
20260904050042 78 144 0.0 0.0 0.00 0.09 0.09 85 1006.2
20260904044542 78 165 0.0 0.0 0.00 0.09 0.09 84 1006.2
20260904043011 78 175 0.0 0.0 0.00 0.09 0.09 83 1006.3
20260904041510 78 163 0.0 0.0 0.00 0.09 0.09 83 1006.1
20260904040012 78 167 0.0 0.0 0.00 0.09 0.09 82 1006.2
20260904034507 78 150 0.0 0.0 0.00 0.09 0.09 82 1006.1
20260904033008 78 148 0.0 0.0 0.00 0.09 0.09 81 1006.2
20260904031506 79 144 0.0 0.0 0.00 0.09 0.09 81 1006.2
20260904030004 79 138 0.0 0.0 0.00 0.09 0.09 81 1006.4
20260904024604 79 138 0.0 0.0 0.00 0.09 0.09 80 1006.2
20260904023032 80 138 0.0 0.0 0.00 0.09 0.09 80 1006.3
20260904021546 80 119 0.0 0.0 0.00 0.09 0.09 79 1006.2
20260904020030 80 105 0.0 0.0 0.00 0.09 0.09 77 1006.1
20260904014529 81 121 0.0 0.0 0.00 0.09 0.09 76 1006.0
20260904013028 81 146 0.0 0.0 0.00 0.09 0.09 75 1005.7
20260904011528 81 110 0.0 0.0 0.00 0.09 0.09 74 1005.5
20260904010058 82 131 0.0 0.0 0.00 0.09 0.09 73 1005.5
20260904004557 83 136 0.0 0.0 0.00 0.09 0.09 70 1005.4
20260904003054 83 141 0.0 0.0 0.00 0.09 0.09 68 1005.4
20260904001553 84 139 0.0 0.0 0.00 0.09 0.09 67 1005.5
20260904000053 84 142 0.0 0.0 0.00 0.09 0.09 66 1005.7
20260903234553 85 144 0.0 0.0 0.00 0.09 0.09 65 1005.6
20260903233034 85 205 0.0 0.0 0.00 0.09 0.09 64 1005.7
20260903231538 85 161 0.0 0.0 0.00 0.09 0.09 63 1005.4
20260903230019 86 147 0.0 0.0 0.00 0.09 0.09 62 1004.9
20260903224519 86 142 0.0 0.0 0.00 0.09 0.09 62 1004.8
20260903223018 85 155 0.0 0.0 0.00 0.09 0.09 63 1004.5
20260903221516 86 144 0.0 0.0 0.00 0.09 0.09 63 1004.9
20260903220011 86 103 0.0 0.0 0.00 0.09 0.09 63 1005.1
20260903214509 85 144 0.0 0.0 0.00 0.09 0.09 63 1005.4
20260903213008 85 150 0.0 0.0 0.00 0.09 0.09 63 1005.3
20260903211506 84 121 0.0 0.0 0.00 0.09 0.09 64 1005.2
20260903210002 84 130 0.0 0.0 0.00 0.09 0.09 64 1005.3
20260903204607 84 165 0.0 0.0 0.00 0.09 0.09 66 1005.6
20260903203100 84 148 0.0 0.0 0.00 0.09 0.09 65 1005.4
20260903201558 84 174 0.0 0.0 0.00 0.09 0.09 64 1005.7
20260903200027 84 175 0.0 0.0 0.00 0.09 0.09 64 1006.2
20260903194533 83 101 0.0 0.0 0.00 0.09 0.09 69 1006.1
20260903193056 79 158 0.0 0.0 0.07 0.09 0.09 81 1006.0
20260903191601 78 115 0.0 0.0 0.09 0.09 0.09 86 1006.3
20260903190053 77 78 0.0 0.0 0.09 0.09 0.09 88 1005.9
20260903184550 77 78 0.0 0.0 0.09 0.09 0.09 83 1006.1
20260903183052 79 102 0.0 0.0 0.02 0.02 0.02 76 1006.1
20260903181547 81 150 0.0 0.0 0.00 0.00 0.00 67 1006.2
20260903180045 82 103 0.0 0.0 0.00 0.00 0.00 64 1006.9
20260903174543 82 107 0.0 0.0 0.00 0.00 0.00 65 1006.8
20260903173041 83 165 0.0 0.0 0.00 0.00 0.00 64 1006.8
20260903171550 83 171 0.0 0.0 0.00 0.00 0.00 61 1007.1
20260903170043 83 91 0.0 0.0 0.00 0.00 0.00 63 1007.2
20260903164533 82 108 0.0 0.0 0.00 0.00 0.00 64 1007.5
20260903163037 81 131 0.0 0.0 0.00 0.00 0.00 66 1007.3
20260903161528 80 126 0.0 0.0 0.00 0.00 0.00 66 1007.5
20260903160024 81 117 0.0 0.0 0.00 0.00 0.00 65 1007.4
20260903154523 80 107 0.0 0.0 0.00 0.00 0.00 66 1007.5
20260903153020 80 109 0.0 0.0 0.00 0.00 0.00 68 1007.6
20260903151517 79 126 0.0 0.0 0.00 0.00 0.00 70 1007.6
20260903150020 79 142 0.0 0.0 0.00 0.00 0.00 68 1007.5
20260903144514 79 111 0.0 0.0 0.00 0.00 0.00 69 1007.5
20260903143011 78 139 0.0 0.0 0.00 0.00 0.00 71 1007.3
20260903141515 78 119 0.0 0.0 0.00 0.00 0.00 73 1007.6
20260903140006 77 76 0.0 0.0 0.00 0.00 0.00 75 1007.6
20260903134535 77 81 0.0 0.0 0.00 0.00 0.00 77 1007.7
20260903133034 76 136 0.0 0.0 0.00 0.00 0.00 81 1007.6
20260903131609 74 137 0.0 0.0 0.00 0.00 0.00 84 1007.8
20260903130100 74 144 0.0 0.0 0.00 0.00 0.00 85 1007.9
20260903124611 73 165 0.0 0.0 0.00 0.00 0.00 85 1007.3
20260903123056 73 169 0.0 0.0 0.00 0.00 0.00 86 1007.0
20260903121555 73 169 0.0 0.0 0.00 0.00 0.00 86 1006.9
20260903120101 73 115 0.0 0.0 0.00 0.00 0.00 87 1007.1
20260903114550 73 161 0.0 0.0 0.00 0.00 0.00 88 1007.4
20260903113056 73 175 0.0 0.0 0.00 0.00 0.00 89 1007.7
20260903111549 73 121 0.0 0.0 0.00 0.00 0.00 89 1007.6
20260903110049 73 178 0.0 0.0 0.00 0.00 0.00 89 1007.4
20260903104518 73 163 0.0 0.0 0.00 0.00 0.00 89 1007.9
20260903103017 73 138 0.0 0.0 0.00 0.00 0.00 88 1007.9
20260903101535 73 119 0.0 0.0 0.00 0.00 0.00 88 1007.6
20260903100013 73 103 0.0 0.0 0.00 0.00 0.00 88 1007.6
20260903094513 73 86 0.0 0.0 0.00 0.00 0.00 88 1007.8
20260903093013 73 100 0.0 0.0 0.00 0.00 0.00 88 1007.4